Tracking 31027 objects as of 19-Jul-2025
HD Live streaming from Space Station
objects crossing your sky now

COSMOS 1275 DEB

Track COSMOS 1275 DEB now!
10-day predictions


NORAD ID: 42181
Int'l Code: 1981-053SV
Perigee: 872.5 km
Apogee: 975.9 km
Inclination: 82.9 °
Period: 103.4 minutes
Semi major axis: 7295 km
RCS: Unknown
Launch date: June 4, 1981
Source: Commonwealth of Independent States (former USSR) (CIS)
Launch site: PLESETSK MISSILE AND SPACE COMPLEX (PKMTR)

Note: This is SATELLITE DEBRIS
Your satellite tracking list
STARLINK-3349
Track 1 satellite(s)




NASA's NSSDC Master Catalog

Two Line Element Set (TLE):
1 42181U 81053SV  25197.33484143  .00001391  00000-0  10322-2 0  9991
2 42181  82.9039 329.3471 0070896 351.4697   8.5258 13.93302529 32159
Source of the keplerian elements: AFSPC